[[{"header":{"parameterUnit":"m.s-1","parameterCategory":1,"la1":30.2991,"la2":30.254,"lo1":-89.0895,"lo2":-89.0444,"dy":0.0017,"dx":0.0017,"nx":28,"ny":28,"refTime":"2023-10-10T09:00:00:Z","depth":0,"parameterNumber":2,"parameterNumberName":"U-component_of_WINDS"},"data":[0,0,0,0,0,0,0,0,0,0,0,0,0,0,0,0,0,0,0,0,0,0,0,0,0,0,0,0,0,0,0,0,0,0,0,0,0,0,0,0,0,0,0,0,0,0,0,0,0,0,0,0,0,0,0,0,0,0,-6.1312,-6.1314,0,-6.1442,-6.1443,-6.1445,-6.1354,-6.135,-6.1346,-6.1343,-6.1472,-6.1479,-6.1486,0,0,0,0,0,0,0,0,0,0,0,0,0,-6.0983,-6.0989,-6.1312,-6.1314,-6.1315,-6.1442,-6.1443,-6.1445,-6.1355,-6.135,-6.1345,-6.1341,-6.147,-6.1478,-6.1487,0,0,0,0,0,0,0,0,0,0,0,0,0,-6.112,-6.0991,-6.1312,-6.1286,-6.1285,-6.1441,-6.1443,-6.1446,-6.1356,-6.135,-6.1344,-6.1338,-6.1467,-6.1477,-6.1488,-6.1676,0,0,-6.1521,-6.1526,0,0,0,0,0,0,0,0,-6.1113,-6.1133,-6.1288,-6.1288,-6.1287,-6.1376,-6.1375,-6.1523,-6.1358,-6.1329,-6.1342,-6.1335,-6.1445,-6.1457,-6.1494,-6.1682,-6.1688,-6.1522,-6.1529,-6.1533,-6.1536,0,0,0,0,0,0,0,-6.1103,-6.1126,-6.1363,-6.129,-6.129,-6.1266,-6.1279,-6.1402,-6.1419,-6.1331,-6.1325,-6.1342,-6.1443,-6.1484,-6.1497,-6.169,-6.1522,-6.1531,-6.1538,-6.1542,-6.2038,-6.2044,0,0,0,0,0,0,-6.1097,-6.1119,-6.1359,-6.1367,-6.1183,-6.1277,-6.1292,-6.1353,-6.1418,-6.1422,-6.1347,-6.1337,-6.1469,-6.1484,-6.1501,-6.1726,-6.1533,-6.1543,-6.155,-6.2031,-6.2039,-6.2046,0,0,0,0,0,0,-6.109,-6.1119,-6.1354,-6.1242,-6.127,-6.1289,-6.1359,-6.1359,-6.14,-6.1429,-6.1432,-6.1386,-6.1465,-6.1486,-6.1633,-6.1729,-6.1548,-6.1558,-6.2023,-6.2034,-6.2043,-6.2178,0,0,0,0,0,0,-6.1081,-6.1117,-6.119,-6.1244,-6.1276,-6.1486,-6.1365,-6.1366,-6.1419,-6.1408,-6.1467,-6.1471,-6.1461,-6.1618,-6.1644,-6.1741,-6.1566,-6.2015,-6.2028,-6.204,-6.2165,-6.2191,-6.2213,0,0,0,0,0,-6.1069,-6.1222,-6.1194,-6.1224,-6.1368,-6.1492,-6.151,-6.1497,-6.1428,-6.15,-6.1519,-6.1469,-6.1714,-6.1634,-6.1663,-6.1764,-6.2009,-6.2024,-6.2039,-6.2154,-6.2186,-6.2213,0,0,0,0,0,0,-6.1178,-6.1229,-6.1198,-6.1373,-6.1429,-6.1476,-6.1568,-6.1532,-6.1607,-6.1593,-6.1573,-6.1587,-6.1742,-6.1767,-6.1677,-6.1949,-6.185,-6.1872,-6.1928,-6.1958,-6.1982,-6.1974,-6.1575,0,0,0,0,0,-6.1222,-6.132,-6.1358,-6.1509,-6.1538,-6.1549,-6.1602,-6.1587,-6.1644,-6.1667,-6.1696,-6.1752,-6.1841,-6.1901,-6.1985,-6.2167,-6.2178,-6.2251,-6.2275,-6.2295,-6.2314,-6.2413,-6.2445,-6.2096,-6.2096,-6.2095,0,0,-6.1314,-6.1354,-6.1417,-6.1531,-6.1573,-6.1674,-6.1569,-6.168,-6.1754,-6.1683,-6.1825,-6.1848,-6.1909,-6.2075,-6.215,-6.2101,-6.2413,-6.2314,-6.233,-6.2338,-6.2431,-6.2465,-6.2494,-6.2106,-6.2104,-6.2102,0,0,-6.1535,-6.1575,-6.1705,-6.1749,-6.1813,-6.1819,-6.185,-6.1903,-6.1916,-6.2058,-6.2007,-6.2094,-6.2249,-6.2294,-6.2338,-6.2574,-6.2531,-6.2602,-6.273,-6.2826,-6.2853,-6.2878,-6.2963,-6.2993,-6.262,-6.2621,-6.2621,0,-6.1642,-6.1793,-6.1776,-6.1891,-6.1943,-6.1884,-6.2015,-6.2057,-6.2146,-6.2182,-6.2126,-6.2319,-6.2355,-6.2532,-6.2589,-6.2626,-6.2661,-6.2596,-6.2851,-6.2875,-6.2897,-6.2978,-6.301,-6.2629,-6.2628,-6.2627,-6.2626,0,-6.1921,-6.2026,-6.2123,-6.2211,-6.2273,-6.2396,-6.2396,-6.2461,-6.244,-6.2452,-6.2596,-6.2638,-6.273,-6.277,-6.275,-6.2943,-6.2911,-6.2853,-6.2754,-6.294,-6.3015,-6.3046,-6.2641,-6.2638,-6.2635,-6.2633,0,0,-6.2215,-6.2292,-6.2328,-6.2367,-6.2433,-6.2514,-6.2632,-6.2723,-6.2779,-6.2841,-6.294,-6.3072,-6.3019,-6.3069,-6.3053,-6.3137,-6.3323,-6.3069,-6.307,-6.3116,-6.3538,-6.3582,-6.3618,-6.3294,-6.3299,-6.3304,-6.3533,0,-6.244,-6.2649,-6.2637,-6.2833,-6.293,-6.2875,-6.2978,-6.3029,-6.3042,-6.3125,-6.3138,-6.3233,-6.3155,-6.3185,-6.3266,-6.3283,-6.3407,-6.3266,-6.3385,-6.339,-6.3374,-6.3658,-6.3705,-6.392,-6.3563,-6.3568,-6.3571,0,-6.2731,-6.2804,-6.3011,-6.3062,-6.3102,-6.3196,-6.3278,-6.3358,-6.3414,-6.3417,-6.3473,-6.3443,-6.3562,-6.3458,-6.3621,-6.3526,-6.3573,-6.3589,-6.3597,-6.3609,-6.3493,-6.3679,-6.3988,-6.402,-6.3617,-6.3614,-6.361,0,-6.2926,-6.3076,-6.3219,-6.3254,-6.3318,-6.3385,-6.3414,-6.3464,-6.3519,-6.359,-6.3625,-6.3708,-6.3754,-6.3819,-6.3812,-6.3737,-6.3978,-6.3874,-6.3984,-6.3985,-6.4039,-6.4036,-6.4361,-6.4067,-6.4067,-6.4066,-6.4066,0,-6.3179,-6.3308,-6.3308,-6.3396,-6.3538,-6.3522,-6.3663,-6.3684,-6.3729,-6.382,-6.3775,-6.3861,-6.3846,-6.3931,-6.3926,-6.4062,-6.4083,-6.4088,-6.4086,-6.4094,-6.4093,-6.4126,-6.4111,-6.4075,-6.4073,-6.4071,-6.407,0,-6.3423,-6.3428,-6.358,-6.3628,-6.3643,-6.3745,-6.3785,-6.3868,-6.3876,-6.3992,-6.4017,-6.4031,-6.4129,-6.4128,-6.4239,-6.4235,-6.4403,-6.4382,-6.4385,-6.4381,-6.4492,-6.4482,-6.4851,-6.4899,-6.4573,-6.4576,-6.4579,0,-6.3585,-6.3683,-6.3741,-6.3799,-6.3833,-6.3927,-6.3983,-6.397,-6.403,-6.4101,-6.4175,-6.4269,-6.4344,-6.4502,-6.4521,-6.4606,-6.4587,-6.4711,-6.46,-6.4605,-6.4591,-6.4586,-6.4595,-6.4733,-6.4737,-6.474,-6.4742,0,-6.3873,-6.387,-6.3954,-6.4039,-6.4107,-6.4173,-6.4233,-6.4283,-6.4276,-6.4345,-6.4445,-6.4503,-6.4617,-6.4711,-6.4792,-6.482,-6.4781,-6.4777,-6.4807,-6.4817,-6.4814,-6.4818,-6.4446,-6.4769,-6.4766,-6.4764,-6.4763,-6.4762,-6.4081,-6.4166,-6.422,-6.4315,-6.4359,-6.4416,-6.4496,-6.4515,-6.4599,-6.4692,-6.4678,-6.479,-6.4842,-6.4947,-6.4983,-6.5069,-6.5025,-6.5069,-6.508,-6.5092,-6.5105,-6.48,-6.5083,-6.5082,-6.5082,-6.5081,-6.5081,0,-6.4368,-6.44,-6.4487,-6.4573,-6.4647,-6.4604,-6.4668,-6.4732,-6.4832,-6.4884,-6.4959,-6.5073,-6.5164,-6.519,-6.5276,-6.534,-6.5324,-6.5364,-6.536,-6.5367,-6.5138,-6.5104,-6.5375,-6.5375,-6.5375,-6.5375,-6.5375,-6.5375,-6.4526,-6.4667,-6.4671,-6.4832,-6.4863,-6.4973,-6.5014,-6.5066,-6.5108,-6.5239,-6.5314,-6.533,-6.5372,-6.5461,-6.5542,-6.5547,-6.5581,-6.5628,-6.5626,-6.5412,-6.5383,-6.5355,-6.5323,-6.5636,-6.5636,-6.5848,-6.585,-6.5851]},{"header":{"parameterUnit":"m.s-1","parameterCategory":1,"la1":30.2991,"la2":30.254,"lo1":-89.0895,"lo2":-89.0444,"dy":0.0017,"dx":0.0017,"nx":28,"ny":28,"refTime":"2023-10-10T09:00:00:Z","depth":0,"parameterNumber":3,"parameterNumberName":"V-component_of_WINDS"},"data":[0,0,0,0,0,0,0,0,0,0,0,0,0,0,0,0,0,0,0,0,0,0,0,0,0,0,0,0,0,0,0,0,0,0,0,0,0,0,0,0,0,0,0,0,0,0,0,0,0,0,0,0,0,0,0,0,0,0,-6.7941,-6.7942,0,-6.7983,-6.7983,-6.7984,-6.7897,-6.7895,-6.7892,-6.7889,-6.793,-6.7933,-6.7937,0,0,0,0,0,0,0,0,0,0,0,0,0,-6.7783,-6.7786,-6.7941,-6.7942,-6.7942,-6.7983,-6.7983,-6.7984,-6.7898,-6.7894,-6.7891,-6.7888,-6.7929,-6.7933,-6.7937,0,0,0,0,0,0,0,0,0,0,0,0,0,-6.7841,-6.7787,-6.7941,-6.7904,-6.7901,-6.7983,-6.7984,-6.7984,-6.7899,-6.7894,-6.789,-6.7886,-6.7927,-6.7932,-6.7938,-6.8057,0,0,-6.7955,-6.7957,0,0,0,0,0,0,0,0,-6.7838,-6.7847,-6.7909,-6.7907,-6.7904,-6.7931,-6.7942,-6.8008,-6.79,-6.79,-6.7889,-6.7884,-6.7933,-6.7938,-6.7955,-6.8058,-6.806,-6.7955,-6.7959,-6.7961,-6.7963,0,0,0,0,0,0,0,-6.7834,-6.7844,-6.7958,-6.791,-6.7907,-6.7884,-6.7888,-6.7955,-6.794,-6.7899,-6.7893,-6.7899,-6.7931,-6.795,-6.7955,-6.8061,-6.7955,-6.796,-6.7964,-6.7966,-6.826,-6.8264,0,0,0,0,0,0,-6.7835,-6.7842,-6.7956,-6.7959,-6.786,-6.7891,-6.7895,-6.7926,-6.7939,-6.7936,-6.7903,-6.7895,-6.7943,-6.7949,-6.7957,-6.8094,-6.7961,-6.7966,-6.7969,-6.8255,-6.8261,-6.8266,0,0,0,0,0,0,-6.7832,-6.7846,-6.7955,-6.7899,-6.7911,-6.7898,-6.7934,-6.7929,-6.7948,-6.7941,-6.7938,-6.7925,-6.794,-6.7949,-6.8032,-6.8094,-6.7969,-6.7974,-6.825,-6.8257,-6.8263,-6.8371,0,0,0,0,0,0,-6.7828,-6.7845,-6.7892,-6.79,-6.7914,-6.8031,-6.7938,-6.7933,-6.7958,-6.7949,-6.7961,-6.7959,-6.7937,-6.8024,-6.8037,-6.8099,-6.7978,-6.8244,-6.8253,-6.8261,-6.8362,-6.838,-6.8397,0,0,0,0,0,-6.7822,-6.792,-6.7894,-6.7909,-6.7972,-6.8035,-6.8042,-6.8015,-6.7964,-6.8009,-6.8004,-6.7959,-6.8085,-6.8033,-6.8047,-6.8112,-6.824,-6.8251,-6.826,-6.8354,-6.8377,-6.8396,0,0,0,0,0,0,-6.7919,-6.7921,-6.7892,-6.7996,-6.8016,-6.802,-6.8076,-6.8041,-6.8075,-6.8064,-6.8028,-6.8032,-6.8121,-6.8125,-6.8067,-6.8226,-6.8154,-6.8167,-6.822,-6.8242,-6.8259,-6.8255,-6.7983,0,0,0,0,0,-6.7953,-6.8005,-6.8003,-6.8095,-6.8106,-6.809,-6.8116,-6.8093,-6.8112,-6.812,-6.8121,-6.814,-6.8183,-6.8213,-6.8253,-6.8362,-6.8362,-6.8413,-6.8431,-6.8445,-6.8457,-6.8512,-6.8534,-6.8299,-6.8299,-6.8299,0,0,-6.8023,-6.803,-6.8065,-6.8115,-6.8127,-6.818,-6.8097,-6.8158,-6.8196,-6.8129,-6.8206,-6.8208,-6.8227,-6.8323,-6.8365,-6.8329,-6.8522,-6.8458,-6.847,-6.8473,-6.8525,-6.8547,-6.8567,-6.8306,-6.8304,-6.8303,0,0,-6.8176,-6.8188,-6.8265,-6.8278,-6.8298,-6.8286,-6.8305,-6.8314,-6.8312,-6.839,-6.8339,-6.8384,-6.8461,-6.8475,-6.8493,-6.8649,-6.8608,-6.8663,-6.8754,-6.8808,-6.8827,-6.8843,-6.8896,-6.8916,-6.8675,-6.8675,-6.8676,0,-6.826,-6.8339,-6.8308,-6.8371,-6.8393,-6.8335,-6.841,-6.8425,-6.8457,-6.8473,-6.8432,-6.8525,-6.8534,-6.8631,-6.8669,-6.8686,-6.8704,-6.8661,-6.8827,-6.8842,-6.8857,-6.8908,-6.8928,-6.8682,-6.8681,-6.868,-6.868,0,-6.844,-6.8495,-6.8554,-6.8586,-6.8615,-6.8684,-6.8662,-6.8695,-6.8669,-6.8661,-6.8739,-6.8747,-6.8787,-6.8808,-6.8784,-6.8901,-6.8878,-6.8833,-6.8759,-6.8886,-6.8933,-6.8953,-6.8691,-6.8689,-6.8687,-6.8685,0,0,-6.8656,-6.8669,-6.8691,-6.8703,-6.872,-6.8761,-6.8827,-6.8865,-6.8893,-6.8916,-6.8969,-6.9034,-6.8991,-6.9011,-6.8988,-6.9036,-6.9156,-6.8984,-6.8984,-6.9014,-6.9283,-6.9315,-6.9339,-6.9129,-6.9133,-6.9136,-6.928,0,-6.8807,-6.892,-6.8893,-6.9004,-6.9053,-6.8997,-6.9053,-6.9069,-6.9063,-6.9102,-6.9094,-6.914,-6.9082,-6.9093,-6.9138,-6.9132,-6.9209,-6.9121,-6.9176,-6.9178,-6.9171,-6.9363,-6.9399,-6.9535,-6.9299,-6.9302,-6.9304,0,-6.8997,-6.9027,-6.9143,-6.9149,-6.9169,-6.922,-6.9252,-6.9291,-6.9306,-6.9298,-6.932,-6.9286,-6.9349,-6.9276,-6.936,-6.9301,-6.9322,-6.9322,-6.9326,-6.9329,-6.9248,-6.9369,-6.9578,-6.9598,-6.9333,-6.9331,-6.9329,0,-6.9141,-6.921,-6.9288,-6.93,-6.931,-6.9347,-6.9353,-6.9364,-6.9388,-6.9415,-6.943,-6.9465,-6.9483,-6.951,-6.9486,-6.9436,-6.9574,-6.9499,-6.9567,-6.9567,-6.9597,-6.9595,-6.981,-6.9614,-6.9614,-6.9613,-6.9613,0,-6.9311,-6.9383,-6.9352,-6.94,-6.9478,-6.9446,-6.9524,-6.9523,-6.9533,-6.9578,-6.9533,-6.9576,-6.9542,-6.9582,-6.9563,-6.9635,-6.9644,-6.9638,-6.9632,-6.9641,-6.9642,-6.9653,-6.9642,-6.9619,-6.9618,-6.9617,-6.9616,0,-6.9484,-6.9466,-6.9546,-6.9548,-6.955,-6.9608,-6.9609,-6.9652,-6.9642,-6.9699,-6.9711,-6.9694,-6.9739,-6.9717,-6.9764,-6.9751,-6.9843,-6.9825,-6.9838,-6.9832,-6.99,-6.9893,-7.0128,-7.0156,-6.9944,-6.9946,-6.9948,0,-6.9593,-6.9647,-6.9654,-6.9681,-6.9689,-6.9734,-6.9757,-6.9727,-6.9753,-6.9773,-6.9814,-6.9854,-6.9884,-6.9957,-6.9949,-6.9983,-6.9965,-7.0045,-6.9969,-6.9976,-6.9963,-6.9959,-6.9963,-7.0059,-7.0062,-7.0064,-7.0065,0,-6.9787,-6.9774,-6.9811,-6.9843,-6.9873,-6.9897,-6.9918,-6.9942,-6.9912,-6.9944,-6.9988,-7.0012,-7.0058,-7.0098,-7.0127,-7.0132,-7.0093,-7.0089,-7.0106,-7.0115,-7.0119,-7.0116,-6.9876,-7.0084,-7.0082,-7.008,-7.0079,-7.0079,-6.9929,-6.9974,-6.9985,-7.0026,-7.0038,-7.0057,-7.0097,-7.0091,-7.0128,-7.0163,-7.0143,-7.0194,-7.0205,-7.0241,-7.025,-7.0289,-7.0257,-7.0283,-7.0288,-7.0295,-7.0303,-7.0115,-7.0295,-7.0294,-7.0294,-7.0293,-7.0293,0,-7.0118,-7.0122,-7.0161,-7.019,-7.0222,-7.0183,-7.0203,-7.0231,-7.0277,-7.0291,-7.0322,-7.0371,-7.0409,-7.0403,-7.0437,-7.0469,-7.0452,-7.0479,-7.0475,-7.0476,-7.033,-7.0311,-7.0492,-7.0492,-7.0492,-7.0492,-7.0492,-7.0492,-7.0221,-7.0293,-7.0282,-7.0358,-7.0361,-7.0411,-7.0425,-7.0442,-7.0453,-7.0511,-7.0541,-7.0537,-7.0543,-7.0576,-7.0609,-7.0606,-7.0619,-7.0652,-7.0643,-7.0507,-7.0487,-7.0468,-7.045,-7.0656,-7.0656,-7.0785,-7.0786,-7.0787]}]]